Location: 81360 Arifat, France
(43.7204°N, 2.3408°E)
Time: 00:39:43
(UTC+01:00)

Courier 1B - Pass Details

Date: 09 December 2025
Orbit: 962 x 1208 km, 28.3° (Epoch: 15 January)

Event Time Altitude Azimuth Distance (km) Brightness Sun altitude
Exits shadow 05:18:11 15° 187° (S) 2,402 9.5 -30.6°
Drops below altitude 10° 05:21:00 10° 162° (SSE) 2,766 10.1 -30.1°
Sets 05:25:01 0° 140° (SE) 3,763 11.2 -29.4°
